Skip Page Navigation
NASA JPL Caltech
NASA Logo - Jet Propulsion Laboratory + View the NASA Portal
+ Near-Earth Object (NEO) Program
Search JPL
JPL Home Earth Solar System Stars & Galaxies Technology
JPL Solar System Dynamics
BODIES ORBITS EPHEMERIDES TOOLS PHYSICAL DATA DISCOVERY FAQ SITE MAP
JPL Small-Body Database Browser
Search: [ help ]  
36187 Travisbarman (1999 TB37)
Classification: Main-belt Asteroid          SPK-ID: 2036187
Ephemeris | Orbit Diagram | Orbital Elements | Physical Parameters | Discovery Circumstances ]

[ show orbit diagram ]
Orbital Elements at Epoch 2456400.5 (2013-Apr-18.0) TDB
Reference: MPO253606 (heliocentric ecliptic J2000)
 Element Value Uncertainty (1-sigma)   Units 
e 0.1745876 n/a  
a 3.1983990 n/a AU
q 2.6399982 n/a AU
i 7.07010 n/a deg
node 126.71858 n/a deg
peri 145.90930 n/a deg
M 225.19478 n/a deg
tp 2457182.8509164
(2015-Jun-09.35091640)
n/a JED
period 2089.2835597
5.72
n/a
n/a
d
yr
n 0.17230787 n/a deg/d
Q 3.7567998 n/a AU
  Orbit Determination Parameters
   # obs. used (total)      785  
   first obs. used      1996-??-??  
   last obs. used      2013-02-14  
   # oppositions      14  
   planetary ephem.      DE403  
   condition code      0  
   fit RMS      0.52  
   data source      MPC:mpn  
   producer      MPCLINUX  

Additional Information
 T_jup = 3.159 

Ephemeris | Orbit Diagram | Orbital Elements | Physical Parameters | Discovery Circumstances ]

Physical Parameter Table
Parameter Symbol Value Units Sigma Reference Notes
absolute magnitude H 13.2 mag n/a PDS3 (MPO 24481)  

36187 Travisbarman           Discovered 1999 Oct. 13 by the Lowell Observatory Near-Earth Object Search at the Anderson Mesa Station.
Travis S. Barman (b. 1972), an assistant astronomer at Lowell Observatory, models the atmospheres of extrasolar planets using large-scale numerical simulations that predict the atmospheric structure, chemistry and emergent spectra.
NOTE: some special characters may not display properly (any characters within {} are an attempt to place the proper accent above a character)
Reference: 20110615/MPCPages.arcLast Updated: 2013-03-28
Ephemeris | Orbit Diagram | Orbital Elements | Physical Parameters | Discovery Circumstances ]
ABOUT SSD CREDITS/AWARDS PRIVACY/COPYRIGHT GLOSSARY LINKS
FirstGov 2013-May-19 10:17 UT
(server date/time)  
NASA Home Page
Site Manager:   Donald K. Yeomans
Webmaster  Alan B. Chamberlin